Home   Weather   Modesto   Past weeks
Flag for USA

Past Weather in Modesto, California, USA — Yesterday and Last 2 Weeks

Now
55 °F

Clear.


Feels Like: 55 °F
Forecast: 74 / 48 °F
Wind: No wind

Location: Modesto City-County-Sham Field

Current Time: Oct 19, 2019 at 1:01:59 am

Latest Report: Oct 18, 2019 at 11:53 pm


Visibility: 10 mi

Pressure: 30.04 "Hg

Humidity: 64%

Dew Point: 43 °F

Location of ModestoLocation

Past Weather in Modesto — Graph

°F

Modesto Temperature Yesterday

Maximum temperature yesterday: 74 °F (at 3:53 pm)
Minimum temperature yesterday: 52 °F (at 6:53 am)
Average temperature yesterday: 62 °F

High & Low Weather Summary for the Past Weeks

 TemperatureHumidityPressure
High89 °F (Oct 8, 3:53 pm)90% (Oct 16, 4:53 am)30.14 "Hg (Oct 16, 4:53 am)
Low44 °F (Oct 12, 6:53 am)15% (Oct 8, 4:53 pm)29.77 "Hg (Oct 8, 6:53 pm)
Average63 °F47%29.94 "Hg
* Reported Oct 3 11:53 pm — Oct 18 11:53 pm, Modesto. Weather by CustomWeather, © 2019

Note: Actual official high and low records may vary slightly from our data, if they occured in-between our weather recording intervals... More about our weather records

Advertising

Modesto Weather History for the Previous 24 Hours

Scroll right to see more
 ConditionsComfort  
Time TempWeatherWind HumidityBarometerVisibility
11:53 pm
Fri, Oct 18
55 °FClear.No wind64%30.04 "Hg10 mi
10:53 pm57 °FClear.6 mph60%30.05 "Hg10 mi
9:53 pm58 °FClear.7 mph58%30.03 "Hg10 mi
8:53 pm60 °FClear.7 mph52%30.02 "Hg10 mi
7:53 pm62 °FClear.10 mph48%30.01 "Hg10 mi
6:53 pm64 °FClear.12 mph45%30.00 "Hg10 mi
5:53 pm69 °FSunny.10 mph39%29.99 "Hg10 mi
4:53 pm73 °FSunny.12 mph40%30.00 "Hg10 mi
3:53 pm74 °FSunny.9 mph38%30.00 "Hg10 mi
2:53 pm73 °FSunny.7 mph43%30.00 "Hg10 mi
1:53 pm71 °FSunny.9 mph42%30.02 "Hg10 mi
12:53 pm71 °FSunny.12 mph42%30.05 "Hg10 mi
11:53 am67 °FSunny.8 mph45%30.06 "Hg10 mi
10:53 am66 °FSunny.6 mph45%30.06 "Hg10 mi
9:53 am62 °FSunny.7 mph52%30.07 "Hg10 mi
8:53 am56 °FSunny.3 mph65%30.06 "Hg10 mi
7:53 am52 °FSunny.3 mph75%30.03 "Hg10 mi
6:53 am52 °FClear.5 mph72%30.02 "Hg10 mi
5:53 am53 °FClear.6 mph66%30.00 "Hg10 mi
4:53 am57 °FClear.10 mph58%29.99 "Hg10 mi
3:53 am57 °FClear.12 mph58%29.98 "Hg10 mi
2:53 am57 °FClear.12 mph60%29.97 "Hg10 mi
1:53 am58 °FClear.13 mph58%29.97 "Hg10 mi
Weather by CustomWeather, © 2019

See weather overview